Change the Weather History Date:

Saturday, August 31, 2013

  Actual Average Record
Temperature  
Mean Temperature 84 °F -  
Max Temperature 95 °F 84 °F 95 °F (2000)
Min Temperature 73 °F 65 °F 59 °F (1999)
Cooling Degree Days 18    
Growing Degree Days 34 (Base 50)    
Moisture  
Dew Point 74 °F    
Average Humidity 74    
Maximum Humidity 92    
Minimum Humidity 46    
Precipitation  
Precipitation 0.00 in - - ()
Sea Level Pressure  
Sea Level Pressure 29.85 in    
Wind  
Wind Speed 4 mph (SW)    
Max Wind Speed 6 mph    
Max Gust Speed -    
Visibility 10 miles    
Events      
Averages and records for this station are not official NWS values.
T = Trace of Precipitation, MM = Missing Value Source: NWS Daily Summary

Daily Weather History Graph

Daily Weather History Graph

Search for Another Location

Airport or City:

Trip Planner

Search our weather history database for the weather conditions in past years. The results will help you decide how hot, cold, wet, or windy it might be!

Date:

Astronomy

Aug. 31, 2013 Rise Set
Actual Time 6:38 AM CDT 7:38 PM CDT
Civil Twilight 6:11 AM CDT 8:05 PM CDT
Nautical Twilight 5:39 AM CDT 8:37 PM CDT
Astronomical Twilight 5:05 AM CDT 9:10 PM CDT
Moon 2:10 AM CDT (8/31) 4:34 PM CDT (8/31)
Length of Visible Light 13h 54m
Length of Day
13h 00m
Waning Crescent, 21% of the Moon is Illuminated
Aug 31
Waning Crescent
Sep 5
New
Sep 12
First Quarter
Sep 19
Full
Sep 26
Last Quarter

Hourly Weather History & Observations

Time (CDT) Temp. Heat Index Dew Point Humidity Pressure Visibility Wind Dir Wind Speed Gust Speed Precip Events Conditions
12:58 AM 76.5 °F - 73.8 °F 91% 29.89 in 10.0 mi SW 4.6 mph - N/A   Clear
1:58 AM 76.1 °F - 73.6 °F 92% 29.89 in 10.0 mi South 4.6 mph - N/A   Clear
2:58 AM 75.9 °F - 73.2 °F 91% 29.88 in 10.0 mi SW 3.5 mph - N/A   Clear
3:58 AM 75.6 °F - 72.5 °F 90% 29.87 in 10.0 mi South 4.6 mph - N/A   Clear
4:58 AM 75.0 °F - 71.6 °F 89% 29.86 in 10.0 mi SSW 3.5 mph - N/A   Clear
5:58 AM 74.5 °F - 71.2 °F 90% 29.87 in 10.0 mi SSW 3.5 mph - N/A   Clear
6:58 AM 73.4 °F - 71.1 °F 92% 29.88 in 10.0 mi SSW 4.6 mph - N/A   Clear
7:58 AM 76.5 °F - 71.8 °F 85% 29.89 in 10.0 mi Variable 4.6 mph - N/A   Clear
8:58 AM 81.3 °F 86.3 °F 73.0 °F 76% 29.91 in 10.0 mi SW 4.6 mph - N/A   Clear
9:58 AM 85.8 °F 93.8 °F 74.3 °F 68% 29.89 in 10.0 mi Variable 2.3 mph - N/A   Clear
10:58 AM 88.9 °F 97.6 °F 73.9 °F 61% 29.87 in 10.0 mi Variable 5.8 mph - N/A   Clear
11:58 AM 91.2 °F 100.2 °F 73.4 °F 56% 29.86 in 10.0 mi Variable 5.8 mph - N/A   Clear
12:58 PM 93.4 °F 103.4 °F 73.8 °F 53% 29.85 in 10.0 mi Variable 4.6 mph - N/A   Clear
1:58 PM 94.3 °F 102.9 °F 72.5 °F 49% 29.84 in 10.0 mi Variable 4.6 mph - N/A   Clear
2:58 PM 94.8 °F 102.1 °F 71.1 °F 46% 29.83 in 10.0 mi Variable 5.8 mph - N/A   Clear
3:58 PM 94.8 °F 104.1 °F 72.7 °F 49% 29.81 in 10.0 mi Variable 3.5 mph - N/A   Clear
4:58 PM 94.5 °F 105.3 °F 74.3 °F 52% 29.80 in 10.0 mi Variable 5.8 mph - N/A   Clear
5:58 PM 93.0 °F 106.0 °F 76.1 °F 58% 29.80 in 10.0 mi SW 3.5 mph - N/A   Clear
6:58 PM 88.5 °F 102.2 °F 77.9 °F 71% 29.79 in 10.0 mi WSW 3.5 mph - N/A   Clear
7:58 PM 84.2 °F 93.4 °F 76.3 °F 77% 29.80 in 10.0 mi SW 3.5 mph - N/A   Clear
8:58 PM 81.3 °F 88.3 °F 76.5 °F 85% 29.81 in 10.0 mi SW 3.5 mph - N/A   Clear
9:58 PM 80.6 °F 86.4 °F 75.7 °F 85% 29.81 in 10.0 mi SW 3.5 mph - N/A   Clear
10:58 PM 79.2 °F - 75.4 °F 88% 29.81 in 10.0 mi SW 3.5 mph - N/A   Clear
11:58 PM 78.8 °F - 75.2 °F 89% 29.80 in 10.0 mi SW 3.5 mph - N/A   Clear